#timestamp,LO_Frequency,Hit,StdDev 
1576245615.3,286046998.2,N
1576245635.2,286047000.7,N
1576245655.9,286046998.1,N
1576245675.7,286047000.6,N
1576245695.6,286047000.8,N
1576245715.4,286047002.4,N
1576245735.2,286047001.1,N
1576245755.1,286047002.7,N
1576245756.0,286047002.7,N
1576245775.8,286047000.6,N
1576245795.7,286047002.2,N
1576245815.5,286047000.2,N
1576245835.3,286047000.4,N
1576245855.2,286047000.5,N
1576245875.0,286047002.3,N
1576245875.9,286047002.3,N
1576245895.8,286047003.8,N
1576245915.6,286047001.7,N
1576245935.4,286047002.1,N
1576245955.3,286047001.8,N
1576245975.1,286047001.7,N
1576245995.8,286047001.7,N
1576246015.7,286047001.9,N
1576246035.5,286047002.0,N
1576246055.4,286047004.4,Y
1576246075.2,286047001.8,P
1576246095.0,286047002.5,P
1576246095.9,286047002.5,P
1576246115.8,286047002.2,Y
1576246135.6,286047000.3,P
1576246155.4,286047000.6,N
1576246175.3,286047000.9,N
1576246195.1,286046998.8,N
1576246215.9,286046999.1,N
1576246235.7,286046999.6,N
1576246255.5,286046999.6,N
1576246275.4,286046998.0,N
1576246295.2,286046997.6,N
1576246315.0,286046997.1,N
1576246316.0,286046997.1,N
1576246335.8,286046997.4,N
1576246355.6,286046998.6,N
1576246375.5,286046996.7,N
1576246395.3,286046996.7,N
1576246415.1,286046997.6,N
1576246435.9,286046996.6,N
1576246455.7,286046997.7,N
1576246475.5,286046997.9,N
1576246495.4,286046998.4,N
1576246515.2,286047000.6,N
1576246535.1,286046999.7,N
1576246536.0,286046999.7,N
1576246555.8,286047000.0,N
1576246575.6,286047000.3,N
1576246595.5,286047000.3,N
1576246615.3,286047002.4,N
1576246635.1,286046999.8,N
1576246655.9,286047000.3,N
1576246675.7,286046998.7,N
1576246695.6,286047001.2,N
1576246715.4,286047000.7,N
1576246735.2,286046998.9,N
1576246755.1,286047000.6,N
1576246756.0,286047000.6,N
1576246775.8,286046998.5,N
1576246795.7,286046999.3,N
1576246815.5,286046999.3,N
1576246835.3,286046998.4,N
1576246855.2,286047000.6,N
1576246875.9,286047000.9,N
1576246895.7,286047000.6,N
1576246915.6,286047000.0,N
1576246935.4,286047002.4,N
1576246955.3,286046999.9,N
1576246975.1,286047000.2,N
1576246976.0,286047000.2,N
1576246995.8,286047000.6,N
1576247015.7,286047002.5,N
1576247035.5,286047000.5,N
1576247055.3,286047000.3,N
1576247075.2,286047000.5,N
1576247095.0,286047001.0,N
1576247095.9,286047001.0,N
1576247115.8,286047001.2,N
1576247135.6,286046998.9,N
1576247155.4,286047000.8,N
1576247175.3,286047000.2,N
1576247195.1,286047001.0,N
1576247215.9,286047000.5,N
1576247235.7,286047001.0,N
1576247255.5,286047000.8,N
1576247275.4,286046998.3,N
1576247295.2,286047001.0,N
1576247315.0,286047000.1,N
1576247315.9,286047000.1,N
1576247335.8,286047000.0,N
1576247355.6,286046998.7,N
1576247375.5,286046998.7,N
1576247395.3,286046998.4,N
1576247415.1,286046998.8,N
1576247435.9,286046998.4,N
1576247455.7,286046998.3,N
1576247475.6,286046998.9,N
1576247495.4,286046998.8,N
1576247515.2,286047000.8,N
1576247535.1,286047000.7,N
1576247536.0,286047000.7,N
1576247555.8,286047000.5,N
1576247575.6,286046998.3,N
1576247595.5,286046998.3,N
1576247615.3,286047000.3,N
1576247635.2,286047002.1,N
1576247655.0,286047002.8,N
1576247655.9,286047002.8,N
1576247675.7,286047000.3,N
1576247695.6,286047000.1,N
1576247715.4,286047000.4,N
1576247735.3,286047002.1,N
1576247755.1,286046999.8,N
1576247756.0,286046999.8,N
1576247775.8,286047002.3,N
1576247795.7,286047001.8,N
1576247815.5,286047002.3,N
1576247835.4,286047001.5,N
1576247855.2,286047004.0,N
1576247875.0,286047001.5,N
1576247875.9,286047001.5,N
1576247895.8,286047004.4,N
1576247915.6,286047000.3,N
1576247935.4,286047002.5,N
1576247955.3,286047002.2,N
1576247975.1,286047002.1,N
1576247995.9,286047001.8,N
1576248015.7,286047003.8,N
1576248035.5,286047003.6,N
1576248055.4,286047004.2,N
1576248075.2,286047004.0,N
1576248095.0,286047004.4,N
1576248096.0,286047004.4,N
1576248115.8,286047003.1,N
1576248135.6,286047004.4,Y
1576248155.5,286047000.4,P
1576248175.3,286047000.1,N
1576248195.1,286047002.5,N
1576248215.9,286046999.8,N
1576248235.7,286047000.5,N
1576248255.6,286046998.1,N
1576248275.4,286047000.0,N
1576248295.2,286047000.2,N
1576248315.1,286047000.5,N
1576248316.0,286047000.5,N
1576248335.8,286047002.3,N
1576248355.7,286047002.2,N
1576248375.5,286047002.2,N
1576248395.3,286047011.9,Y
1576248415.2,286047001.8,P
1576248435.0,286047004.4,P
1576248435.9,286047004.4,N
1576248455.7,286047002.4,N
1576248475.6,286046999.9,N
1576248495.4,286047000.7,N
1576248515.3,286046998.1,N
1576248535.1,286046998.3,N
1576248536.0,286046998.3,N
1576248555.8,286046998.7,N
1576248575.7,286046996.5,N
1576248595.5,286046998.9,N
1576248615.4,286047001.2,N
1576248635.2,286047000.9,N
1576248655.0,286047000.2,N
1576248655.9,286047000.2,N
1576248675.8,286047002.7,N
1576248695.6,286047000.0,N
1576248715.4,286047000.3,N
1576248735.3,286046999.9,N
1576248755.1,286047000.3,N
1576248775.9,286047000.9,N
1576248795.7,286046999.7,N
1576248815.5,286047001.0,N
1576248835.4,286047000.3,N
1576248855.2,286047000.3,N
1576248875.0,286047002.1,N
1576248875.9,286047002.1,N
1576248895.8,286047004.0,N
1576248915.6,286047001.5,N
1576248935.5,286047004.1,N
1576248955.3,286047004.3,N
1576248975.1,286047001.6,N
1576248995.9,286047002.0,N
1576249015.7,286047001.8,N
1576249035.5,286047004.2,N
1576249055.4,286047004.4,N
1576249075.2,286047002.2,N
1576249095.1,286047001.6,N
1576249096.0,286047001.6,N
1576249115.8,286047001.3,N
1576249135.6,286047004.3,N
1576249155.5,286047001.4,N
1576249175.3,286047001.5,N
1576249195.2,286047002.0,N
